CW9336 Weather Reports


time (UTC)temp
C
wind
direction
speed
KPH
gust
KPH
rain 1hr
cm
rain 24hr
cm
rain mn
cm
humidity
%
barometer
mb
20260503010017 6 352 0.0 0.0 0.00 0.00 0.00 56 1016.9
20260503004518 7 352 0.0 0.0 0.00 0.00 0.00 54 1016.8
20260503003022 7 352 0.0 0.0 0.00 0.00 0.00 51 1016.8
20260503001520 7 352 0.0 3.2 0.00 0.00 0.00 47 1016.7
20260503000022 8 321 0.0 3.2 0.00 0.00 0.00 47 1016.6
20260502234530 8 9 1.6 6.4 0.00 0.00 0.00 46 1016.6
20260502233023 8 287 4.8 6.4 0.00 0.00 0.00 44 1016.6
20260502231528 8 343 1.6 8.0 0.00 0.00 0.00 46 1016.7
20260502230024 8 25 4.8 12.9 0.00 0.00 0.00 44 1016.7
20260502224523 8 325 3.2 9.7 0.00 0.00 0.00 43 1016.7
20260502223025 8 234 4.8 11.3 0.00 0.03 0.00 41 1016.6
20260502221525 8 304 4.8 8.0 0.00 0.03 0.00 45 1016.7
20260502220026 8 11 4.8 14.5 0.00 0.03 0.00 43 1016.8
20260502214525 8 32 3.2 17.7 0.00 0.03 0.00 45 1016.7
20260502213036 8 321 3.2 16.1 0.00 0.03 0.00 42 1016.7
20260502211513 8 5 4.8 14.5 0.00 0.03 0.00 43 1016.8
20260502210013 8 31 4.8 12.9 0.00 0.03 0.00 44 1016.9
20260502204511 8 283 3.2 11.3 0.00 0.03 0.00 43 1017.0
20260502203012 8 55 6.4 14.5 0.00 0.03 0.00 44 1017.0
20260502201536 8 13 6.4 20.9 0.00 0.03 0.00 43 1017.3
20260502200014 8 207 4.8 12.9 0.00 0.03 0.00 45 1017.3
20260502194515 8 352 6.4 16.1 0.00 0.03 0.00 43 1017.4
20260502193018 8 311 8.0 14.5 0.00 0.03 0.00 43 1017.6
20260502191522 8 352 4.8 12.9 0.00 0.03 0.00 45 1017.8
20260502190021 8 242 3.2 14.5 0.00 0.03 0.00 46 1018.0
20260502184520 8 317 8.0 19.3 0.00 0.03 0.00 43 1018.1
20260502183028 8 317 6.4 16.1 0.00 0.03 0.00 45 1018.1
20260502181524 7 346 1.6 14.5 0.00 0.03 0.00 46 1018.2
20260502163028 7 30 6.4 17.7 0.00 0.08 0.00 50 1018.8
20260502161526 7 332 6.4 17.7 0.00 0.08 0.00 49 1018.8
20260502151514 7 347 6.4 17.7 0.00 0.08 0.00 54 1018.7
20260502123023 3 9 6.4 11.3 0.00 0.10 0.00 78 1018.3
20260502121530 2 19 4.8 11.3 0.00 0.10 0.00 83 1018.3
20260502114529 1 5 1.6 4.8 0.00 0.10 0.00 91 1018.1
20260502113005 0 352 0.0 1.6 0.00 0.10 0.00 90 1018.0
20260502111507 0 352 1.6 3.2 0.00 0.10 0.00 89 1018.0
20260502110010 0 352 0.0 0.0 0.00 0.13 0.00 88 1017.9
20260502104505 1 352 0.0 3.2 0.00 0.18 0.00 88 1017.8
20260502103013 1 340 0.0 3.2 0.00 0.25 0.00 86 1017.6
20260502101509 1 88 0.0 0.0 0.00 0.33 0.00 85 1017.5
20260502091518 2 88 0.0 0.0 0.00 0.46 0.00 81 1017.3
20260502071522 3 337 1.6 6.4 0.00 0.51 0.00 80 1016.6
20260502070037 3 338 3.2 11.3 0.00 0.53 0.00 79 1016.7
20260502064523 3 352 1.6 12.9 0.00 0.56 0.00 78 1016.8
20260502063031 3 324 1.6 11.3 0.00 0.56 0.00 78 1016.8
20260502061508 4 321 3.2 9.7 0.00 0.56 0.00 78 1016.9
20260502060016 4 328 3.2 4.8 0.00 0.56 0.00 78 1016.9
20260502054503 4 311 3.2 12.9 0.00 0.56 0.00 79 1017.0
20260502053003 4 340 3.2 6.4 0.00 0.56 0.00 79 1017.1
20260502051505 3 352 1.6 6.4 0.00 0.58 0.00 81 1017.2
20260502050012 3 315 1.6 4.8 0.00 0.58 0.00 85 1017.2
20260502044504 3 292 0.0 3.2 0.00 0.61 0.00 88 1017.2
20260502043004 3 352 0.0 0.0 0.00 0.61 0.00 87 1017.2
20260502041507 3 352 0.0 0.0 0.00 0.61 0.00 85 1017.1
20260502040005 3 352 0.0 0.0 0.00 0.61 0.00 84 1017.0
20260502034504 4 352 0.0 0.0 0.00 0.61 0.61 84 1016.8
20260502033005 5 352 0.0 0.0 0.00 0.61 0.61 85 1016.8
20260502031505 4 352 0.0 3.2 0.00 0.61 0.61 86 1016.8
20260502030004 4 23 0.0 0.0 0.00 0.61 0.61 87 1016.8
20260502024507 4 23 0.0 0.0 0.00 0.61 0.61 86 1016.8
20260502023020 4 23 0.0 0.0 0.00 0.61 0.61 85 1016.7
20260502021505 4 24 0.0 3.2 0.00 0.61 0.61 84 1016.5
20260502020006 5 24 0.0 0.0 0.00 0.61 0.61 83 1016.4
20260502014507 5 24 0.0 3.2 0.00 0.61 0.61 82 1016.2
20260502013005 5 352 0.0 3.2 0.00 0.61 0.61 81 1015.9
20260502011508 5 344 0.0 6.4 0.00 0.61 0.61 80 1015.9